EW8373 Weather Reports


Display with metric or nautical units.
time (UTC)temp
F
wind
direction
speed
MPH
gust
MPH
rain 1hr
in
rain 24hr
in
rain mn
in
humidity
%
barometer
mb
20210728053752 68 302 3.0 3.0 0.00 0.32 0.00 86 1011.9
20210728053253 68 302 1.0 2.0 0.00 0.32 0.00 85 1012.0
20210728052753 68 302 0.0 1.0 0.00 0.32 0.00 86 1011.9
20210728052253 68 302 1.0 3.0 0.00 0.32 0.00 85 1011.9
20210728051753 68 302 2.0 5.0 0.00 0.32 0.00 85 1011.9
20210728051254 68 302 2.0 3.0 0.00 0.32 0.00 84 1011.8
20210728050753 68 312 2.0 3.0 0.00 0.32 0.00 84 1011.9
20210728050254 68 323 2.0 3.0 0.00 0.32 0.00 83 1011.9
20210728045753 68 323 3.0 6.0 0.00 0.32 0.00 85 1011.9
20210728045253 67 323 5.0 5.0 0.00 0.32 0.00 85 1011.9
20210728044753 67 323 3.0 3.0 0.00 0.32 0.00 86 1012.0
20210728044254 67 323 2.0 5.0 0.00 0.32 0.00 86 1011.9
20210728043753 66 324 3.0 6.0 0.00 0.32 0.00 87 1012.0
20210728043253 66 325 4.0 5.0 0.00 0.32 0.00 87 1012.0
20210728042753 66 299 3.0 6.0 0.00 0.32 0.00 88 1011.8
20210728042253 65 315 3.0 5.0 0.00 0.32 0.00 89 1011.9
20210728041753 65 291 2.0 3.0 0.00 0.32 0.00 90 1011.9
20210728041254 65 308 2.0 3.0 0.00 0.32 0.00 90 1012.0
20210728040754 64 311 2.0 3.0 0.00 0.32 0.00 90 1011.9
20210728040254 64 311 2.0 3.0 0.00 0.32 0.00 91 1011.9
20210728035754 64 311 1.0 3.0 0.00 0.32 0.00 91 1011.8
20210728035254 64 311 1.0 2.0 0.00 0.32 0.00 91 1011.8
20210728034754 64 311 0.0 1.0 0.00 0.32 0.00 91 1011.9
20210728034254 64 310 1.0 2.0 0.00 0.32 0.00 90 1011.9
20210728033754 64 282 1.0 2.0 0.00 0.32 0.00 90 1011.9
20210728033254 64 279 1.0 3.0 0.00 0.33 0.00 89 1011.8
20210728032755 64 279 2.0 3.0 0.00 0.33 0.00 89 1011.9
20210728032254 65 296 2.0 3.0 0.00 0.33 0.00 89 1011.9
20210728031754 65 296 1.0 3.0 0.00 0.33 0.00 89 1011.8
20210728031254 65 296 3.0 5.0 0.00 0.33 0.00 89 1011.9
20210728030754 65 297 3.0 7.0 0.00 0.33 0.00 89 1011.8
20210728030254 65 297 3.0 5.0 0.00 0.33 0.00 89 1011.9
20210728025754 65 297 3.0 6.0 0.00 0.33 0.00 89 1012.0
20210728025255 65 287 3.0 7.0 0.00 0.33 0.00 91 1012.0
20210728024755 65 319 3.0 5.0 0.00 0.33 0.00 90 1011.9
20210728024255 65 319 2.0 3.0 0.00 0.33 0.00 90 1011.8
20210728023755 65 319 2.0 3.0 0.00 0.33 0.00 90 1011.7
20210728023255 65 319 2.0 3.0 0.00 0.33 0.00 90 1011.7
20210728022755 65 319 3.0 3.0 0.00 0.33 0.00 90 1011.8
20210728022255 65 319 2.0 3.0 0.00 0.33 0.00 90 1011.8
20210728021755 65 319 1.0 3.0 0.00 0.34 0.00 90 1011.8
20210728021255 65 319 2.0 3.0 0.00 0.37 0.00 90 1011.7
20210728020755 65 319 1.0 3.0 0.00 0.53 0.00 90 1011.8
20210728020255 65 319 1.0 2.0 0.00 0.64 0.00 90 1011.7
20210728015754 65 319 2.0 3.0 0.00 0.64 0.00 90 1011.6
20210728015255 65 319 2.0 3.0 0.00 0.64 0.00 90 1011.7
20210728014755 65 319 3.0 3.0 0.00 0.64 0.00 90 1011.6
20210728014254 65 319 3.0 5.0 0.00 0.64 0.00 90 1011.6
20210728013755 65 319 3.0 5.0 0.00 0.64 0.00 90 1011.8
20210728013255 65 319 2.0 3.0 0.00 0.64 0.00 90 1011.9
20210728012755 66 319 2.0 3.0 0.00 0.64 0.00 89 1011.9
20210728012255 66 319 3.0 5.0 0.00 0.64 0.00 89 1011.9
20210728011756 65 319 3.0 5.0 0.00 0.64 0.00 90 1012.0
20210728011255 66 89 4.0 6.0 0.00 0.64 0.00 90 1012.0
20210728010755 66 90 2.0 3.0 0.00 0.64 0.00 89 1012.0
20210728010256 66 90 1.0 2.0 0.00 0.64 0.00 89 1012.0
20210728005755 66 90 1.0 3.0 0.00 0.64 0.00 89 1012.1
20210728005256 66 90 2.0 3.0 0.00 0.64 0.00 89 1012.0
20210728004756 66 90 2.0 3.0 0.00 0.64 0.00 89 1012.1
20210728004256 66 90 2.0 3.0 0.00 0.64 0.00 89 1012.2
20210728003755 66 90 1.0 3.0 0.00 0.64 0.00 89 1012.2
20210728003256 66 90 3.0 3.0 0.00 0.64 0.00 89 1012.2
20210728002756 66 90 2.0 6.0 0.00 0.64 0.00 88 1012.3
20210728002255 67 90 3.0 6.0 0.00 0.64 0.00 88 1012.3
20210728001756 67 90 2.0 3.0 0.00 0.64 0.00 88 1012.3
20210728001256 67 90 2.0 3.0 0.00 0.64 0.00 88 1012.3
20210728000756 67 90 1.0 3.0 0.00 0.64 0.00 87 1012.2
20210728000256 67 90 2.0 3.0 0.00 0.64 0.00 87 1012.2
20210727235757 67 90 0.0 0.0 0.00 0.64 0.00 86 1012.2
20210727235257 67 90 0.0 0.0 0.00 0.64 0.00 87 1012.3
20210727234757 67 90 0.0 0.0 0.00 0.64 0.00 87 1012.3
20210727234256 68 90 0.0 0.0 0.00 0.64 0.00 87 1012.2
20210727233756 68 90 0.0 0.0 0.00 0.64 0.00 87 1012.2
20210727233256 68 90 0.0 0.0 0.00 0.64 0.00 87 1012.3
20210727232756 68 90 0.0 0.0 0.00 0.64 0.00 87 1012.4
20210727232257 68 90 1.0 1.0 0.00 0.64 0.00 86 1012.4
20210727231756 68 90 0.0 0.0 0.00 0.64 0.00 85 1012.5
20210727231256 68 90 0.0 0.0 0.00 0.64 0.00 85 1012.5
20210727230756 69 90 1.0 2.0 0.00 0.64 0.00 84 1012.5
20210727230257 69 90 1.0 3.0 0.00 0.64 0.00 84 1012.5
20210727225757 69 90 1.0 2.0 0.00 0.64 0.00 83 1012.6
20210727225257 70 90 0.0 2.0 0.00 0.64 0.00 83 1012.6
20210727224757 70 90 2.0 3.0 0.00 0.64 0.00 84 1012.6
20210727224256 70 90 3.0 3.0 0.00 0.64 0.00 83 1012.6
20210727223758 70 90 1.0 2.0 0.00 0.64 0.00 82 1012.6
20210727223257 70 90 0.0 1.0 0.00 0.64 0.00 83 1012.7
20210727222757 70 90 2.0 3.0 0.00 0.64 0.00 82 1012.9
20210727222256 70 90 3.0 3.0 0.00 0.64 0.00 81 1012.9
20210727221757 70 90 3.0 6.0 0.00 0.64 0.00 81 1013.0
20210727221257 71 90 5.0 6.0 0.00 0.64 0.00 80 1013.0
20210727220757 71 90 3.0 3.0 0.00 0.64 0.00 80 1013.0
20210727220257 71 90 2.0 6.0 0.00 0.64 0.00 80 1013.1
20210727215758 70 90 3.0 6.0 0.00 0.64 0.32 81 1013.0
20210727215257 70 90 3.0 6.0 0.00 0.64 0.32 81 1013.0
20210727214757 71 90 2.0 3.0 0.00 0.64 0.32 80 1013.2
20210727214257 71 90 2.0 3.0 0.00 0.64 0.32 79 1013.2
20210727213758 71 90 4.0 6.0 0.00 0.64 0.32 79 1013.1
20210727213258 71 90 2.0 3.0 0.00 0.64 0.32 78 1013.2
20210727212758 72 90 2.0 3.0 0.00 0.64 0.32 77 1013.1
20210727212258 72 90 2.0 3.0 0.00 0.64 0.32 77 1013.3
20210727211758 72 90 2.0 3.0 0.00 0.64 0.32 78 1013.2
20210727211258 72 90 3.0 6.0 0.00 0.64 0.32 77 1013.3
20210727210758 72 90 3.0 3.0 0.00 0.64 0.32 77 1013.2
20210727210258 72 90 2.0 3.0 0.00 0.64 0.32 75 1013.2
20210727205759 73 90 1.0 3.0 0.00 0.64 0.32 74 1013.2
20210727205258 73 90 3.0 3.0 0.00 0.64 0.32 74 1013.2
20210727204758 73 90 3.0 6.0 0.00 0.64 0.32 73 1013.3
20210727204258 74 90 2.0 6.0 0.00 0.64 0.32 72 1013.3
20210727203758 73 90 3.0 6.0 0.00 0.64 0.32 73 1013.3
20210727203258 73 90 3.0 6.0 0.00 0.64 0.32 72 1013.2
20210727202758 73 90 3.0 6.0 0.00 0.64 0.32 72 1013.3
20210727202258 73 90 3.0 6.0 0.00 0.64 0.32 72 1013.2
20210727201759 74 90 3.0 3.0 0.00 0.64 0.32 70 1013.3
20210727201259 75 90 4.0 10.0 0.00 0.64 0.32 69 1013.3
20210727200758 72 115 4.0 7.0 0.00 0.64 0.32 73 1013.3
20210727200258 72 121 1.0 2.0 0.00 0.64 0.32 73 1013.2
20210727195759 72 121 1.0 2.0 0.00 0.64 0.32 73 1013.1
20210727195259 72 121 2.0 2.0 0.00 0.64 0.32 72 1013.1
20210727194758 72 121 1.0 2.0 0.00 0.64 0.32 73 1013.1
20210727194259 72 121 0.0 1.0 0.00 0.64 0.32 73 1013.0
20210727193759 72 121 0.0 0.0 0.00 0.64 0.32 72 1012.9
20210727193259 72 121 0.0 0.0 0.00 0.64 0.32 72 1012.9
20210727192758 73 121 1.0 2.0 0.00 0.64 0.32 72 1012.9
20210727192259 73 121 2.0 3.0 0.00 0.64 0.32 71 1012.8
20210727191759 73 121 2.0 3.0 0.00 0.64 0.32 70 1012.7
20210727191259 73 121 2.0 3.0 0.00 0.64 0.32 69 1012.6
20210727190759 74 121 2.0 3.0 0.00 0.64 0.32 69 1012.6
20210727190259 74 121 3.0 3.0 0.00 0.64 0.32 68 1012.6
20210727185759 74 121 2.0 3.0 0.00 0.64 0.32 67 1012.6
20210727185300 75 121 2.0 3.0 0.00 0.64 0.32 67 1012.4
20210727184759 75 111 2.0 3.0 0.00 0.64 0.32 66 1012.4
20210727184259 76 122 2.0 2.0 0.00 0.64 0.32 64 1012.4
20210727183759 76 135 2.0 3.0 0.00 0.64 0.32 64 1012.4
20210727183259 77 148 2.0 3.0 0.00 0.64 0.32 62 1012.4
20210727182759 77 144 3.0 3.0 0.00 0.64 0.32 60 1012.4
20210727182259 77 148 3.0 3.0 0.00 0.64 0.32 60 1012.3
20210727181759 77 166 0.0 3.0 0.00 0.64 0.32 60 1012.4
20210727181300 78 176 1.0 3.0 0.00 0.64 0.32 58 1012.4
20210727180801 79 177 1.0 3.0 0.00 0.64 0.32 58 1012.4
20210727180300 79 170 1.0 3.0 0.00 0.64 0.32 57 1012.4
20210727175800 80 169 1.0 3.0 0.00 0.64 0.32 56 1012.4
20210727175259 80 211 2.0 3.0 0.00 0.64 0.32 55 1012.4
20210727174800 80 221 2.0 3.0 0.00 0.64 0.32 54 1012.4
20210727174300 81 221 2.0 3.0 0.00 0.64 0.32 52 1012.4
20210727173801 81 223 2.0 3.0 0.00 0.64 0.32 52 1012.4
20210727173300 81 201 3.0 3.0 0.00 0.64 0.32 52 1012.4
20210727172800 81 217 2.0 3.0 0.00 0.64 0.32 52 1012.4
20210727172301 81 216 2.0 3.0 0.00 0.64 0.32 51 1012.5
20210727171800 82 209 2.0 5.0 0.00 0.64 0.32 52 1012.4
20210727171300 82 212 5.0 7.0 0.00 0.64 0.32 50 1012.5
20210727170801 83 219 3.0 7.0 0.00 0.64 0.32 50 1012.4
20210727170301 82 179 2.0 7.0 0.00 0.64 0.32 50 1012.4
20210727165801 82 162 3.0 7.0 0.00 0.64 0.32 51 1012.4
20210727165305 83 162 2.0 6.0 0.00 0.64 0.32 49 1012.4
20210727164800 83 162 3.0 6.0 0.00 0.64 0.32 49 1012.4
20210727164300 83 190 3.0 6.0 0.00 0.64 0.32 48 1012.4
20210727163801 83 190 3.0 6.0 0.00 0.64 0.32 48 1012.4
20210727163301 83 181 3.0 7.0 0.00 0.64 0.32 49 1012.5
20210727162802 83 175 3.0 9.0 0.00 0.64 0.32 49 1012.5
20210727162301 83 168 5.0 12.0 0.00 0.64 0.32 46 1012.5
20210727161801 83 174 5.0 10.0 0.00 0.64 0.32 47 1012.6
20210727161301 83 152 3.0 6.0 0.00 0.64 0.32 46 1012.6
20210727160802 84 135 3.0 7.0 0.00 0.64 0.32 43 1012.6
20210727160301 84 136 5.0 9.0 0.00 0.64 0.32 43 1012.7
20210727155801 84 166 3.0 8.0 0.00 0.64 0.32 44 1012.7
20210727155301 84 163 7.0 10.0 0.00 0.64 0.32 43 1012.7
20210727154801 85 167 5.0 9.0 0.00 0.64 0.32 46 1012.7
20210727154301 85 153 6.0 12.0 0.00 0.64 0.32 43 1012.7
20210727153801 85 115 6.0 12.0 0.00 0.64 0.32 41 1012.7
20210727153301 85 128 4.0 8.0 0.00 0.64 0.32 44 1012.8
20210727152801 85 137 6.0 12.0 0.00 0.64 0.32 44 1012.8
20210727152305 85 129 3.0 8.0 0.00 0.64 0.32 44 1012.8
20210727151801 85 156 3.0 7.0 0.00 0.64 0.32 45 1012.8
20210727151302 86 84 3.0 7.0 0.00 0.64 0.32 43 1012.9
20210727150801 86 139 3.0 10.0 0.00 0.64 0.32 44 1012.9
20210727150301 86 187 4.0 12.0 0.00 0.64 0.32 44 1013.0
20210727145801 86 124 7.0 10.0 0.00 0.64 0.32 45 1013.1
20210727145302 86 190 4.0 10.0 0.00 0.64 0.32 46 1013.2
20210727144803 86 148 9.0 12.0 0.00 0.64 0.32 47 1013.2
20210727144302 86 87 2.0 8.0 0.00 0.64 0.32 47 1013.1
20210727143802 86 64 3.0 9.0 0.00 0.64 0.32 46 1013.1
20210727143302 85 78 2.0 8.0 0.00 0.64 0.32 46 1013.1
20210727142802 86 79 5.0 10.0 0.00 0.64 0.32 44 1013.1
20210727142305 86 137 5.0 10.0 0.00 0.64 0.32 43 1013.2
20210727141802 86 96 7.0 12.0 0.00 0.64 0.32 44 1013.1
20210727141302 86 115 3.0 8.0 0.00 0.64 0.32 44 1013.1
20210727140802 85 116 5.0 10.0 0.00 0.64 0.32 45 1013.2
20210727140302 85 110 5.0 12.0 0.00 0.64 0.32 46 1013.3
20210727135802 84 147 2.0 3.0 0.00 0.64 0.32 47 1013.3
20210727135304 85 242 2.0 8.0 0.00 0.64 0.32 43 1013.2
20210727134803 85 190 5.0 8.0 0.00 0.64 0.32 46 1013.3
20210727134302 85 121 7.0 10.0 0.00 0.64 0.32 45 1013.3
20210727133802 85 77 2.0 3.0 0.00 0.64 0.32 44 1013.3
20210727133302 83 234 2.0 6.0 0.00 0.64 0.32 50 1013.4
20210727132802 83 188 5.0 8.0 0.00 0.64 0.32 47 1013.6
20210727132307 85 178 3.0 8.0 0.00 0.64 0.32 46 1013.5
20210727131803 85 158 5.0 12.0 0.00 0.64 0.32 49 1013.5
20210727131302 84 148 7.0 13.0 0.00 0.64 0.32 50 1013.5
20210727130802 83 225 3.0 6.0 0.00 0.64 0.32 49 1013.5
20210727130302 84 282 3.0 7.0 0.00 0.64 0.32 47 1013.5
20210727125803 84 157 6.0 10.0 0.00 0.64 0.32 47 1013.4
20210727125305 85 196 2.0 5.0 0.00 0.64 0.32 46 1013.5
20210727124803 85 173 2.0 6.0 0.00 0.64 0.32 45 1013.7
20210727124303 85 196 5.0 9.0 0.00 0.64 0.32 47 1013.7
20210727123804 85 183 6.0 9.0 0.00 0.64 0.32 47 1013.9
20210727123303 84 5 2.0 3.0 0.00 0.64 0.32 48 1013.8
20210727122803 83 5 2.0 5.0 0.00 0.64 0.32 48 1013.9
20210727122305 84 270 1.0 5.0 0.00 0.64 0.32 50 1014.0
20210727121803 84 195 3.0 8.0 0.00 0.64 0.32 48 1014.1
20210727121303 85 257 5.0 12.0 0.00 0.64 0.32 48 1014.1
20210727120804 84 129 5.0 12.0 0.00 0.64 0.32 45 1014.3
20210727120304 84 197 7.0 10.0 0.00 0.64 0.32 49 1014.4
20210727115804 83 94 3.0 7.0 0.00 0.64 0.32 47 1014.4
20210727115305 83 309 1.0 7.0 0.00 0.64 0.32 49 1014.4
20210727114803 83 260 5.0 9.0 0.00 0.64 0.32 48 1014.5
20210727114304 82 208 2.0 3.0 0.00 0.64 0.32 50 1014.5
20210727113804 82 136 3.0 7.0 0.00 0.64 0.32 50 1014.5
20210727113304 83 217 4.0 7.0 0.00 0.64 0.32 47 1014.5
20210727112804 83 322 2.0 8.0 0.00 0.64 0.32 48 1014.5
20210727112305 83 183 2.0 9.0 0.00 0.64 0.32 45 1014.6
20210727111803 84 233 2.0 12.0 0.00 0.64 0.32 46 1014.6
20210727111304 83 234 3.0 8.0 0.00 0.64 0.32 50 1014.7
20210727110805 82 179 5.0 9.0 0.00 0.64 0.32 52 1014.7
20210727110304 82 230 6.0 9.0 0.00 0.64 0.32 51 1014.8
20210727105804 83 209 6.0 10.0 0.00 0.64 0.32 52 1014.9
20210727105306 83 265 5.0 12.0 0.00 0.64 0.32 51 1014.9
20210727104804 83 259 4.0 8.0 0.00 0.64 0.32 48 1014.7
20210727104305 82 290 3.0 7.0 0.00 0.64 0.32 50 1014.6
20210727103804 82 177 4.0 8.0 0.00 0.64 0.32 47 1014.6
20210727103304 82 263 5.0 12.0 0.00 0.64 0.32 48 1014.5
20210727102805 82 265 3.0 5.0 0.00 0.64 0.32 48 1014.5
20210727102306 82 266 1.0 6.0 0.00 0.64 0.32 49 1014.6
20210727101803 82 254 6.0 12.0 0.00 0.64 0.32 49 1014.7
20210727101303 82 232 3.0 7.0 0.00 0.64 0.32 53 1014.6
20210727100803 82 291 2.0 6.0 0.00 0.64 0.32 52 1014.6
20210727100303 81 298 1.0 2.0 0.00 0.64 0.32 51 1014.6
20210727095804 81 298 1.0 2.0 0.00 0.64 0.32 54 1014.6
20210727095306 81 298 3.0 7.0 0.00 0.64 0.32 53 1014.7
20210727094803 81 108 6.0 12.0 0.00 0.64 0.32 55 1014.7
20210727094303 81 164 3.0 10.0 0.00 0.64 0.32 53 1014.7
20210727093804 80 235 1.0 3.0 0.00 0.64 0.32 55 1014.8
20210727093303 79 217 3.0 9.0 0.00 0.64 0.32 57 1014.9
20210727092804 80 217 4.0 9.0 0.00 0.64 0.32 58 1014.9
20210727092306 80 189 1.0 10.0 0.00 0.64 0.32 59 1014.9
20210727091803 80 133 3.0 7.0 0.01 0.64 0.32 58 1014.9
20210727091304 80 213 2.0 8.0 0.32 0.64 0.32 58 1015.0
20210727090804 79 257 2.0 8.0 0.32 0.64 0.32 61 1014.9
20210727090304 79 257 2.0 7.0 0.32 0.64 0.32 61 1014.8
20210727085805 78 258 2.0 6.0 0.32 0.64 0.32 65 1014.9
20210727085305 78 223 1.0 6.0 0.32 0.64 0.32 64 1014.8
20210727084804 78 236 2.0 5.0 0.32 0.64 0.32 65 1014.8
20210727084304 77 237 3.0 7.0 0.32 0.64 0.32 64 1014.8
20210727083804 77 304 6.0 9.0 0.32 0.64 0.32 65 1014.7
20210727083305 77 190 0.0 5.0 0.32 0.64 0.32 68 1014.7
20210727082805 76 262 3.0 8.0 0.32 0.64 0.32 69 1014.8
20210727082306 76 246 5.0 7.0 0.32 0.64 0.32 69 1014.8
20210727081305 76 240 7.0 9.0 0.00 0.32 0.00 72 1014.7
20210727080752 75 222 5.0 9.0 0.00 0.32 0.00 73 1014.7
20210727075251 75 276 3.0 10.0 0.00 0.32 0.32 76 1014.5
20210727074751 74 239 4.0 7.0 0.00 0.32 0.32 78 1014.5
20210727074252 74 290 1.0 5.0 0.00 0.32 0.32 80 1014.4
20210727073751 73 213 3.0 5.0 0.00 0.32 0.32 80 1014.5
20210727073252 73 296 3.0 5.0 0.00 0.32 0.32 81 1014.4
20210727072752 73 248 2.0 3.0 0.00 0.32 0.32 81 1014.4
20210727072251 72 248 2.0 5.0 0.00 0.32 0.32 82 1014.4
20210727071752 72 249 3.0 7.0 0.00 0.32 0.32 82 1014.4
20210727071252 72 261 4.0 7.0 0.00 0.32 0.32 83 1014.4
20210727070752 72 275 2.0 6.0 0.00 0.32 0.32 83 1014.4
20210727070252 72 280 3.0 8.0 0.00 0.32 0.32 82 1014.4
20210727065752 72 312 6.0 9.0 0.00 0.32 0.32 85 1014.4
20210727065252 71 329 2.0 7.0 0.00 0.32 0.32 85 1014.4
20210727064752 71 323 5.0 9.0 0.00 0.32 0.32 85 1014.4
20210727064253 71 306 5.0 8.0 0.00 0.32 0.32 86 1014.4
20210727063752 70 290 5.0 12.0 0.00 0.32 0.32 86 1014.4
20210727063252 70 280 7.0 13.0 0.00 0.32 0.32 87 1014.3
20210727062752 70 267 6.0 10.0 0.00 0.32 0.32 89 1014.2
20210727062252 69 260 3.0 12.0 0.00 0.32 0.32 89 1014.2
20210727061752 69 283 7.0 12.0 0.00 0.32 0.32 90 1014.2
20210727061252 69 278 8.0 10.0 0.00 0.32 0.32 91 1014.2
20210727060753 68 226 3.0 5.0 0.00 0.32 0.32 94 1014.2
20210727060253 68 226 3.0 6.0 0.00 0.32 0.32 95 1014.3
20210727055753 68 226 2.0 3.0 0.00 0.32 0.32 95 1014.2
20210727055253 67 226 2.0 3.0 0.00 0.32 0.32 96 1014.3
20210727054753 67 226 3.0 5.0 0.00 0.32 0.32 96 1014.2
20210727054253 67 226 3.0 6.0 0.00 0.32 0.32 96 1014.1